Date String (YYYY-MM-DD hh:mm:ss) UTC,Instrument flags,absolute air pressure of the measurement (hPa),sample flow rate (lpm),inlet stack bypass flow (lpm),air temperature of the measurement (°C),ambient temperature measured by the external sensor (°C),aerosol sample conditioner tube jacket temperature (°C),OPC LED temperature (°C),internal box temperature (°C),relative humidity of the measurement (%),span deviation,mass concentration of particles derived from Lorenz-Mie calculation of OPC scattering (μg/m³),mass concentration of particles derived from Lorenz-Mie calculation of OPC scattering (μg/m³),mass concentration of particles derived from Lorenz-Mie calculation of OPC scattering (μg/m³)
DateTimeUTC,F1_M11,P_M11,Q1_M11,Q2_M11,T1_M11,T2_M11,T3_M11,T4_M11,T5_M11,U1_M11,ZSPAN_M11,X0_M11,X2_M11,X1_M11
2024-01-10 20:00:00,SystemResetWarning,0811.0,5.00,000.00,018.7,017.4,000.0,027.2,020.0,5.6,0000.0,0008.06,0001.02,0000.48
2024-01-10 20:01:00,SystemResetWarning,0810.7,5.01,000.00,018.7,017.4,000.0,027.2,020.0,5.5,0000.0,0007.90,0001.02,0000.48
2024-01-10 20:02:00,SystemResetWarning,0810.6,5.00,000.00,018.7,017.3,000.0,027.2,020.0,5.5,0000.0,0008.23,0001.00,0000.48
2024-01-10 20:03:00,SystemResetWarning,0810.5,4.99,000.00,018.7,017.3,000.0,027.2,020.0,5.4,0000.0,0006.77,0000.96,0000.47
2024-01-10 20:04:00,SystemResetWarning,0810.3,4.98,000.00,018.7,017.3,000.0,027.2,020.0,5.4,0000.0,0006.49,0000.91,0000.45
2024-01-10 20:05:00,SystemResetWarning,0810.3,5.00,000.00,018.7,017.3,000.0,027.2,020.0,5.2,0000.0,0005.59,0000.90,0000.45
2024-01-10 20:06:00,SystemResetWarning,0810.2,5.01,000.00,018.6,017.3,000.0,027.2,020.0,5.2,0000.0,0006.03,0000.91,0000.45
2024-01-10 20:07:00,SystemResetWarning,0810.1,4.99,000.00,018.6,017.2,000.0,027.2,020.0,5.2,0000.0,0005.26,0000.86,0000.43
2024-01-10 20:08:00,SystemResetWarning,0810.0,5.00,000.00,018.6,017.2,000.0,027.2,020.0,5.2,0000.0,0004.54,0000.80,0000.43
2024-01-10 20:09:00,SystemResetWarning,0809.9,4.99,000.00,018.6,017.2,000.0,027.1,020.0,5.1,0000.0,0004.59,0000.81,0000.44
2024-01-10 20:10:00,SystemResetWarning,0809.7,5.01,000.00,018.6,017.2,000.0,027.1,020.0,5.1,0000.0,0004.52,0000.81,0000.43
2024-01-10 20:11:00,SystemResetWarning,0810.0,5.01,000.00,018.6,017.4,000.0,027.1,020.2,5.1,0000.0,0004.10,0000.79,0000.43
2024-01-10 20:12:00,SystemResetWarning,0809.8,4.99,000.00,018.8,018.3,000.0,027.1,020.6,5.2,0000.0,0005.43,0000.75,0000.41
2024-01-10 20:13:00,SystemResetWarning,0809.8,4.99,000.00,018.9,018.9,000.0,027.1,020.8,5.1,0000.0,0005.32,0000.76,0000.41
2024-01-10 20:14:00,SystemResetWarning,0809.8,4.99,000.00,019.0,018.8,000.0,027.1,020.5,5.1,0000.0,0005.29,0000.79,0000.41
2024-01-10 20:15:00,SystemResetWarning,0809.7,5.00,000.00,018.9,018.6,000.0,027.2,020.4,5.1,0000.0,0005.04,0000.76,0000.42
2024-01-10 20:16:00,SystemResetWarning,0809.8,5.01,000.00,018.8,018.4,000.0,027.2,020.1,4.9,0000.0,0004.95,0000.77,0000.42
2024-01-10 20:17:00,SystemResetWarning,0810.0,5.01,000.00,018.8,018.2,000.0,027.2,020.0,4.9,0000.0,0004.21,0000.77,0000.42
2024-01-10 20:18:00,SystemResetWarning,0810.0,4.99,000.00,018.7,018.0,000.0,027.2,020.0,5.1,0000.0,0004.42,0000.79,0000.42
2024-01-10 20:19:00,SystemResetWarning,0810.0,4.99,000.00,018.7,017.8,000.0,027.2,020.0,5.1,0000.0,0004.88,0000.88,0000.42
2024-01-10 20:20:00,SystemResetWarning,0810.3,5.02,000.00,018.6,017.7,000.0,027.2,020.0,5.2,0000.0,0005.70,0000.96,0000.41
2024-01-10 20:21:00,SystemResetWarning,0810.2,4.99,000.00,018.6,017.6,000.0,027.2,020.0,5.3,0000.0,0008.22,0001.11,0000.42
2024-01-10 20:22:00,SystemResetWarning,0810.3,4.99,000.00,018.6,017.5,000.0,027.2,020.0,5.3,0000.0,0008.53,0001.27,0000.44
2024-01-10 20:23:00,SystemResetWarning,0810.4,5.02,000.00,018.6,017.9,000.0,027.2,020.3,5.3,0000.0,0008.27,0001.38,0000.45
2024-01-10 20:24:00,SystemResetWarning,0810.6,5.00,000.00,018.8,018.8,000.0,027.1,020.8,5.4,0000.0,0008.08,0001.39,0000.44
2024-01-10 20:25:00,SystemResetWarning,0810.6,4.98,000.00,018.9,019.2,000.0,027.2,020.7,5.4,0000.0,0009.23,0001.56,0000.45
2024-01-10 20:26:00,SystemResetWarning,0810.6,5.00,000.00,019.0,019.0,000.0,027.1,020.4,5.5,0000.0,0012.46,0001.87,0000.47
2024-01-10 20:27:00,SystemResetWarning,0810.6,5.01,000.00,018.9,018.8,000.0,027.1,020.3,5.5,0000.0,0013.02,0001.98,0000.47
2024-01-10 20:28:00,SystemResetWarning,0810.7,5.01,000.00,018.9,018.6,000.0,027.1,020.2,5.5,0000.0,0014.23,0002.17,0000.49
2024-01-10 20:29:00,SystemResetWarning,0810.6,5.00,000.00,018.9,018.4,000.0,027.1,020.0,5.5,0000.0,0016.57,0002.46,0000.52
2024-01-10 20:30:00,SystemResetWarning,0810.7,5.00,000.00,018.8,018.2,000.0,027.2,020.0,5.5,0000.0,0016.82,0002.59,0000.54
2024-01-10 20:31:00,SystemResetWarning,0810.6,5.00,000.00,018.8,018.0,000.0,027.2,020.0,5.5,0000.0,0017.56,0002.86,0000.58
2024-01-10 20:32:00,SystemResetWarning,0810.8,4.99,000.00,018.8,017.8,000.0,027.2,020.0,5.4,0000.0,0016.11,0002.84,0000.58
2024-01-10 20:33:00,SystemResetWarning,0810.8,4.99,000.00,018.8,017.7,000.0,027.2,020.0,5.4,0000.0,0015.41,0002.69,0000.57
2024-01-10 20:34:00,SystemResetWarning,0810.8,5.02,000.00,018.8,017.6,000.0,027.2,020.0,5.5,0000.0,0015.15,0002.57,0000.57
2024-01-10 20:35:00,SystemResetWarning,0810.7,5.00,000.00,018.8,017.5,000.0,027.2,020.0,5.6,0000.0,0016.02,0002.62,0000.58
2024-01-10 20:36:00,SystemResetWarning,0810.9,4.99,000.00,018.8,017.4,000.0,027.2,020.0,5.6,0000.0,0015.68,0002.51,0000.59
2024-01-10 20:37:00,SystemResetWarning,0810.8,5.00,000.00,018.8,017.3,000.0,027.2,020.0,5.7,0000.0,0012.30,0002.27,0000.58
2024-01-10 20:38:00,SystemResetWarning,0810.8,5.00,000.00,018.8,017.3,000.0,027.2,020.0,5.7,0000.0,0011.56,0002.22,0000.58
2024-01-10 20:39:00,SystemResetWarning,0810.7,4.99,000.00,018.8,017.2,000.0,027.2,020.0,5.7,0000.0,0011.36,0002.08,0000.58
2024-01-10 20:40:00,SystemResetWarning,0810.8,5.00,000.00,018.8,017.3,000.0,027.2,020.1,5.6,0000.0,0009.37,0001.79,0000.55
2024-01-10 20:41:00,SystemResetWarning,0810.9,5.02,000.00,018.8,018.1,000.0,027.2,020.5,5.6,0000.0,0008.62,0001.57,0000.53
2024-01-10 20:42:00,SystemResetWarning,0810.9,5.00,000.00,019.0,019.0,000.0,027.2,020.9,5.6,0000.0,0007.65,0001.19,0000.49
2024-01-10 20:43:00,SystemResetWarning,0810.9,4.98,000.00,019.1,019.0,000.0,027.2,020.6,5.6,0000.0,0007.28,0001.03,0000.48
2024-01-10 20:44:00,SystemResetWarning,0811.0,5.01,000.00,019.0,018.8,000.0,027.2,020.4,5.6,0000.0,0007.24,0001.01,0000.48
2024-01-10 20:45:00,SystemResetWarning,0811.0,5.01,000.00,019.0,018.6,000.0,027.2,020.2,5.7,0000.0,0006.95,0000.99,0000.48
2024-01-10 20:46:00,SystemResetWarning,0811.0,4.99,000.00,018.9,018.4,000.0,027.2,020.0,5.7,0000.0,0005.05,0000.96,0000.48
2024-01-10 20:47:00,SystemResetWarning,0811.0,4.99,000.00,018.9,018.1,000.0,027.2,020.0,5.6,0000.0,0003.84,0000.88,0000.48
2024-01-10 20:48:00,SystemResetWarning,0811.1,5.00,000.00,018.9,018.0,000.0,027.2,020.0,5.6,0000.0,0003.72,0000.83,0000.47
2024-01-10 20:49:00,SystemResetWarning,0811.0,5.01,000.00,018.9,017.8,000.0,027.2,020.0,5.6,0000.0,0003.53,0000.76,0000.47
2024-01-10 20:50:00,SystemResetWarning,0811.0,5.01,000.00,018.8,017.7,000.0,027.2,020.0,5.4,0000.0,0003.72,0000.74,0000.48
2024-01-10 20:51:00,SystemResetWarning,0811.1,4.99,000.00,018.8,017.6,000.0,027.2,020.0,5.4,0000.0,0002.88,0000.80,0000.49
2024-01-10 20:52:00,SystemResetWarning,0810.9,4.99,000.00,018.8,017.4,000.0,027.2,020.0,5.4,0000.0,0002.80,0000.81,0000.51
2024-01-10 20:53:00,SystemResetWarning,0810.8,5.01,000.00,018.8,017.4,000.0,027.2,020.0,5.3,0000.0,0002.89,0000.82,0000.52
2024-01-10 20:54:00,SystemResetWarning,0810.9,5.01,000.00,018.8,017.3,000.0,027.2,020.0,5.3,0000.0,0002.91,0000.83,0000.53
2024-01-10 20:55:00,SystemResetWarning,0810.9,4.99,000.00,018.8,017.3,000.0,027.2,020.0,5.3,0000.0,0003.20,0000.86,0000.55
2024-01-10 20:56:00,SystemResetWarning,0810.9,5.00,000.00,018.8,017.7,000.0,027.2,020.3,5.3,0000.0,0003.45,0000.92,0000.55
2024-01-10 20:57:00,SystemResetWarning,0811.0,5.01,000.00,018.9,018.6,000.0,027.2,020.8,5.4,0000.0,0003.43,0000.94,0000.56
2024-01-10 20:58:00,SystemResetWarning,0811.0,4.98,000.00,019.1,019.0,000.0,027.2,020.8,5.3,0000.0,0003.49,0000.96,0000.56
2024-01-10 20:59:00,SystemResetWarning,0810.7,5.01,000.00,019.0,018.9,000.0,027.2,020.4,5.4,0000.0,0003.55,0000.96,0000.57
